Flag for Brazil Weather past 2 weeks in Rio Branco, Acre, Brazil

Now
82 °F

Passing clouds.


Feels Like: 86 °F
Forecast: 71 / 94 °F
Wind: 9 mph from Northwest

Location: Rio Branco Airport

Current Time: Sep 23, 2014 at 9:50:52 AM

Latest Report: Sep 23, 2014 at 9:00 AM


Visibility: N/A

Pressure: 29.95 "Hg

Humidity: 66%

Dew point: 70 °F

Location of Rio BrancoLocation

Historic Weather in Rio Branco — Graph

°F

Rio Branco temperature yesterday

Maximum temperature yesterday: 90 °F (at 2:00 PM)
Minimum temperature yesterday: 66 °F (at 2:00 AM)
Average temperature yesterday: 77 °F

Past Weeks' High & Low Weather Summary

 TemperatureHumidityPressure
High93 °F (Sep 8, 12:00 PM)100% (Sep 17, 12:00 AM)30.04 "Hg (Sep 17, 12:00 AM)
Low66 °F (Sep 17, 5:00 AM)25% (Sep 9, 3:00 PM)29.68 "Hg (Sep 11, 4:00 PM)
Average78 °F74%29.88 "Hg
* Reported Sep 8 8:00 AM — Sep 23 8:00 AM, Rio Branco, Weather by CustomWeather, © 2014

Note: Actual official high and low records may vary slightly from our data, if they occured in-between our weather recording intervals... More about our weather records

Advertising

Rio Branco weather history for previous 24 hours

 ConditionsComfort  
Time TempWeatherWind HumidityBarometerVisibility
8:00 AM
Sep 23
81 °FSunny.8 mph70%29.95 "Hg10 mi
7:00 AM77 °FSunny.8 mph79%29.92 "Hg10 mi
6:00 AM72 °FClear.3 mph88%29.89 "Hg10 mi
5:00 AM72 °FClear.3 mph88%29.86 "Hg10 mi
4:00 AM72 °FClear.3 mph88%29.86 "Hg10 mi
3:00 AM73 °FClear.3 mph83%29.83 "Hg10 mi
2:00 AM73 °FClear.5 mph83%29.86 "Hg10 mi
1:00 AM73 °FClear.2 mph83%29.86 "Hg10 mi
12:00 AM73 °FClear.2 mph89%29.86 "Hg10 mi
11:00 PM
Sep 22
73 °FClear.2 mph89%29.86 "Hg10 mi
10:00 PM75 °FClear.2 mph83%29.89 "Hg10 mi
9:00 PM75 °FClear.1 mph83%29.86 "Hg10 mi
8:00 PM77 °FClear.No wind79%29.83 "Hg10 mi
7:00 PM77 °FClear.No wind79%29.83 "Hg10 mi
6:00 PM82 °FPassing clouds.3 mph62%29.80 "HgN/A
5:00 PM86 °FScattered clouds.5 mph52%29.80 "HgN/A
4:00 PM88 °FScattered clouds.6 mph49%29.80 "HgN/A
3:00 PM88 °FScattered clouds.8 mph49%29.83 "HgN/A
2:00 PM90 °FPartly sunny.6 mph43%29.86 "HgN/A
1:00 PM88 °FScattered clouds.7 mph49%29.89 "HgN/A
12:00 PM86 °FScattered clouds.6 mph55%29.92 "HgN/A
11:00 AM84 °FScattered clouds.3 mph55%29.98 "HgN/A
10:00 AM82 °FSunny.5 mph55%30.01 "Hg10 mi
9:00 AM79 °FSunny.6 mph65%30.01 "Hg10 mi
Weather by CustomWeather, © 2014

See weather overviewHow to use our weather pages